SCP
0 0 0 0 0 0 0 0 0 1 1 0 0 0 0 0 0 0 0 0 0 0 0 0 1 1 1 1 1 0 0 0 0 0 0 0 0 0 0 0 0 1 1
0 0 0 0 0 0 0 0 0 0 1 0 0 0 0 0 0 0 0 0 0 0 0 0 0 1 1 1 1 1 0 0 0 0 0 0 0 0 0 0 0 0 1
0 0 0 0 0 0 0 0 0 0 0 1 0 0 0 0 0 0 0 0 0 0 0 0 0 1 1 1 1 1 1 0 0 0 0 0 1 0 0 0 0 0 0
0 0 0 0 0 0 0 0 0 0 0 1 1 0 0 0 0 0 0 0 0 0 0 0 0 1 1 1 1 1 1 1 0 0 0 1 1 0 0 0 0 0 0
0 0 0 0 0 0 0 0 0 0 0 0 1 0 0 0 0 0 0 0 0 0 0 0 0 1 1 1 1 1 1 1 1 1 0 1 1 1 0 0 0 0 0
1 0 0 0 0 0 0 0 0 0 0 0 1 1 0 0 0 0 0 0 0 0 0 0 0 0 1 1 1 1 1 1 1 0 0 0 1 1 0 0 0 0 0
0 0 0 0 0 0 0 0 0 0 0 0 1 1 0 0 0 0 0 0 0 0 0 0 0 0 1 1 1 1 1 1 1 0 0 0 1 1 1 1 0 0 0
0 0 0 0 0 0 0 0 0 0 0 0 1 1 0 0 0 0 0 0 0 0 0 0 1 1 1 1 1 1 1 1 1 0 0 0 0 1 1 1 1 0 0
0 0 0 0 0 0 0 0 0 0 0 0 0 0 0 0 0 0 0 0 0 0 0 0 1 1 1 0 0 1 1 1 1 1 0 0 0 1 1 1 1 1 1
0 0 0 0 0 0 0 0 0 0 0 0 0 0 0 0 0 0 0 0 0 0 0 0 0 1 1 1 0 0 1 1 1 1 0 0 0 0 1 1 1 1 1
0 0 0 0 0 0 0 0 0 0 0 0 0 0 0 0 0 0 0 0 0 0 0 0 0 0 1 1 1 1 0 1 1 1 1 0 0 0 1 1 1 1 1
0 0 0 0 0 0 0 0 0 0 0 0 0 0 0 0 0 0 0 0 0 0 0 0 0 0 1 1 1 1 0 0 1 1 1 0 0 0 1 1 1 1 1
0 0 0 0 0 0 0 0 0 0 0 0 0 0 0 0 0 0 0 0 0 0 0 0 0 0 0 1 1 0 0 0 1 1 1 1 0 0 0 1 1 1 1
0 0 0 0 0 0 0 0 0 0 0 0 0 0 0 0 0 0 0 0 0 0 0 0 0 0 0 1 1 0 0 0 0 1 1 0 0 0 0 0 1 1 1
1 1 0 0 0 0 0 1 0 0 0 0 0 0 0 0 0 0 0 0 0 0 0 0 0 0 0 0 0 0 0 0 0 0 0 0 0 0 0 0 0 0 0
1 1 1 0 0 0 0 0 1 0 0 0 0 0 0 0 0 0 0 0 0 0 0 0 0 0 0 0 0 1 1 0 0 0 0 0 0 0 0 0 0 0 0
1 1 1 1 1 0 0 0 0 1 0 0 0 0 0 0 0 0 0 0 0 0 0 0 0 0 0 0 0 1 1 0 0 0 0 0 0 0 0 0 0 0 0
1 1 1 1 1 1 0 0 0 0 0 0 0 0 0 0 0 0 0 0 0 0 0 0 0 0 0 0 0 0 1 0 0 0 0 0 0 0 0 0 0 0 0
1 1 1 1 1 0 0 0 0 0 0 0 0 0 0 0 0 0 0 0 0 0 0 0 0 0 0 0 0 0 0 0 0 0 0 0 0 0 0 0 0 0 0
0 0 1 1 0 0 0 0 0 0 0 0 0 0 0 0 0 0 0 0 0 0 0 0 0 0 0 0 0 0 0 0 0 0 0 0 0 0 0 0 0 0 0
0 0 0 0 0 0 0 0 0 0 0 0 0 0 0 0 0 0 0 0 0 0 0 0 0 0 0 0 0 0 0 0 0 0 0 0 0 0 0 0 0 0 0
0 0 0 0 0 0 0 0 0 0 0 0 0 0 0 0 0 0 0 0 0 0 0 0 0 0 0 0 0 0 0 0 0 0 0 0 0 0 0 0 0 0 0
0 0 0 0 0 0 0 0 0 0 0 0 0 0 0 0 0 0 0 0 0 0 0 0 0 0 0 0 0 0 0 0 0 0 0 0 0 0 0 0 0 0 0
0 0 0 0 0 0 0 0 0 0 0 0 0 0 0 0 0 0 0 0 0 0 0 0 0 0 0 0 0 0 0 0 0 0 0 0 0 0 0 0 0 0 0
0 0 0 0 0 0 0 0 0 0 0 0 0 0 0 0 0 0 0 0 0 0 0 0 0 0 0 0 0 0 0 0 0 0 0 0 0 0 0 0 0 0 0
0 0 0 0 0 0 0 0 0 0 0 0 0 0 0 0 0 0 0 0 0 0 0 0 0 0 0 0 0 0 0 0 0 0 0 0 0 0 0 0 0 0 0
Wind_Speed
1 2 1 1 2 2 1 2 1 2 2 2 2 2 1 1 1 2 2 4 4 3 3 3 3 3 3 3 4 4 4 4 3 4 4 4 4 4 4 5 4 4 4
1 2 2 2 2 2 1 1 2 1 1 2 2 2 2 1 1 2 2 2 3 3 2 3 2 2 2 2 2 3 4 4 4 3 3 3 3 3 3 4 4 3 3
1 1 1 1 1 2 2 1 2 1 1 2 2 3 2 2 1 1 1 1 1 2 2 1 2 2 2 1 2 2 2 2 3 2 2 2 3 2 2 2 2 2 2
1 1 1 1 1 2 2 1 1 1 1 1 1 2 2 2 1 0 1 1 1 1 0 0 1 1 1 1 1 1 0 1 1 2 1 1 1 1 1 1 1 0 1
1 1 0 0 1 1 2 1 1 1 1 1 1 1 2 1 2 1 1 1 1 1 1 1 0 0 0 0 0 1 1 1 0 1 1 1 1 1 1 1 1 1 1
0 1 0 1 1 1 1 1 1 1 1 1 2 2 2 2 2 1 2 1 1 1 1 1 1 1 1 1 2 2 2 2 1 1 2 2 2 2 2 2 3 2 3
0 0 0 1 1 0 1 1 1 1 2 1 1 2 2 2 2 1 1 1 1 1 1 2 2 1 2 3 3 3 3 3 3 3 3 3 3 3 4 4 4 4 4
0 0 0 0 1 1 1 1 0 0 1 1 0 1 1 2 2 1 1 1 2 1 2 2 2 2 2 2 2 3 3 4 4 4 4 4 5 5 5 5 5 5 5
1 1 1 1 1 1 1 1 1 1 1 1 0 1 1 1 2 2 2 2 2 1 2 1 2 2 2 2 2 3 4 4 5 6 6 6 6 7 7 6 6 6 6
1 1 1 1 1 1 1 2 1 1 1 2 2 1 1 1 1 2 2 2 2 2 2 2 2 3 2 2 3 4 4 4 6 7 7 8 8 8 8 8 8 8 8
1 1 1 1 1 1 2 2 2 2 2 2 2 2 2 1 2 2 3 3 3 2 2 2 2 2 3 2 3 4 6 6 7 8 9 9 9 10 10 10 10 10 10
1 1 2 2 2 2 2 2 2 2 3 3 2 2 2 2 2 2 3 3 4 3 3 3 3 3 3 3 3 4 6 6 7 9 10 10 11 11 11 11 11 10 10
1 2 2 2 2 3 3 2 3 3 3 3 3 3 3 3 2 2 3 3 4 4 3 3 3 3 3 3 3 4 5 7 8 9 10 11 10 10 11 11 11 11 11
2 2 2 3 3 3 3 3 3 3 3 4 4 4 3 3 3 3 3 3 4 4 4 4 3 3 3 2 3 4 4 7 9 9 10 11 10 11 11 11 11 11 11
2 2 3 3 4 4 4 3 3 4 4 4 4 4 4 3 3 3 3 4 4 4 5 4 2 2 2 2 4 3 4 8 10 11 11 11 11 11 11 11 12 12 12
2 2 3 3 4 4 4 4 4 4 4 4 4 4 4 3 3 3 3 3 4 5 6 4 3 3 3 4 6 4 5 9 10 11 11 11 11 11 12 12 12 12 12
2 3 3 3 4 4 4 4 5 5 5 5 5 5 5 4 3 3 3 3 4 4 7 6 4 3 4 4 5 4 4 5 6 11 12 12 12 12 12 13 12 13 12
2 3 3 3 4 4 4 5 5 5 6 6 6 6 6 4 5 4 4 4 5 5 6 8 5 4 5 5 5 5 5 5 5 9 11 12 12 12 12 12 13 13 12
3 3 3 4 4 4 4 4 5 5 5 6 6 6 6 5 5 4 5 4 4 5 4 6 6 4 4 4 5 5 5 4 5 7 9 10 11 12 12 13 13 13 13
3 3 4 4 4 4 4 4 4 4 4 5 5 5 6 6 6 5 5 5 4 4 4 5 6 5 4 4 4 4 4 4 4 5 7 8 9 11 12 12 12 12 13
2 2 3 3 4 4 4 4 4 4 4 4 4 5 5 7 8 7 6 5 5 5 5 5 6 5 5 4 4 4 5 4 5 4 4 4 4 5 6 9 11 12 13
2 2 2 3 3 3 5 6 5 4 4 4 5 5 5 6 7 9 11 10 9 7 7 6 6 7 7 5 4 5 5 5 5 3 3 5 4 5 5 5 9 12 12
2 3 3 3 3 4 7 7 7 4 4 4 4 4 5 5 6 4 7 9 9 11 12 9 8 8 7 6 6 7 6 6 7 4 4 7 5 6 5 6 11 12 12
2 3 4 4 4 5 7 7 7 5 4 4 4 5 5 5 5 5 5 6 6 7 8 7 7 8 7 7 7 7 7 7 6 5 5 7 5 5 5 4 9 11 11
3 3 3 4 4 5 6 7 7 3 3 4 4 5 5 5 8 9 6 6 6 6 7 9 10 10 11 12 10 6 6 6 7 5 4 5 5 5 5 5 6 9 10
3 3 4 4 4 4 6 7 6 3 3 4 4 4 7 7 9 10 6 5 6 6 5 6 7 8 8 8 10 7 6 7 6 5 3 4 4 4 5 4 4 4 5
Wind_Direction
31 20 14 13 0 356 359 350 354 18 11 3 357 360 0 24 72 83 78 70 70 73 102 99 93 91 84 80 76 73 70 63 75 76 77 74 70 65 59 57 60 73 79
31 15 10 7 3 352 339 341 344 12 10 5 351 348 344 355 56 89 105 78 69 65 83 106 95 94 91 89 81 76 73 65 70 75 70 66 61 59 60 63 59 63 75
37 23 6 5 356 347 342 348 355 10 14 7 350 344 347 355 20 66 98 110 97 73 65 97 97 92 90 95 88 83 71 70 63 67 70 60 56 56 49 50 55 67 76
26 26 12 359 345 355 347 345 8 2 360 358 342 327 330 333 320 331 105 116 125 122 100 77 75 79 79 90 96 123 79 60 53 39 64 77 60 48 39 10 351 130 120
17 39 2 333 346 359 340 331 3 3 345 333 311 307 307 299 287 277 213 153 145 151 169 184 202 306 253 259 261 244 244 257 284 335 310 266 281 296 306 319 298 274 214
3 53 357 332 344 357 339 336 348 347 332 300 305 311 290 269 260 238 223 195 186 189 183 187 203 233 244 257 258 256 252 242 252 260 284 272 268 269 269 277 280 272 252
257 89 352 336 330 315 325 321 346 341 335 330 347 327 299 265 234 225 224 203 205 211 197 190 197 200 224 241 255 254 253 250 254 264 276 269 260 269 269 263 267 271 272
271 209 177 301 310 300 311 306 305 299 297 319 30 341 320 316 313 273 227 213 218 213 222 225 207 205 206 208 237 244 252 254 257 263 270 273 262 263 268 266 263 267 271
227 233 211 226 288 286 262 266 260 249 255 281 253 162 173 241 312 279 246 224 221 226 233 237 222 218 222 207 212 232 243 255 260 262 265 272 267 262 262 265 263 266 270
242 224 230 229 237 263 271 261 256 260 231 251 280 264 236 184 191 297 298 269 255 243 234 246 242 233 228 217 218 227 235 252 260 264 267 268 271 265 262 263 264 264 268
220 225 228 228 233 247 261 260 251 257 238 236 250 273 271 271 221 213 265 281 285 263 251 246 242 239 236 226 214 220 231 244 257 264 265 268 270 271 264 264 267 266 268
215 216 236 227 237 243 248 244 238 245 245 245 249 251 246 235 228 224 242 263 272 269 260 246 241 236 232 224 225 241 241 244 258 264 264 267 270 275 272 269 270 270 270
244 226 235 235 238 241 245 246 240 240 245 245 244 247 252 257 253 247 246 262 273 282 264 250 237 232 237 221 223 239 251 255 257 262 266 269 274 276 278 270 269 271 271
239 233 231 240 242 237 241 243 248 243 244 243 246 247 251 257 257 244 232 245 271 275 260 253 256 237 232 226 240 247 247 267 264 264 269 273 275 275 276 273 269 271 272
248 235 233 241 243 239 235 234 242 244 243 244 241 243 244 246 252 251 237 217 226 258 265 256 251 250 249 241 253 244 242 262 270 267 267 270 271 272 272 275 268 267 269
253 249 247 242 246 245 240 237 244 245 242 247 241 242 246 244 252 252 242 235 228 236 259 258 263 269 270 271 268 258 250 267 268 271 268 268 270 271 272 272 271 265 266
256 252 256 255 253 250 243 238 240 240 240 246 248 242 246 245 247 253 249 242 241 232 253 269 269 271 268 271 272 259 256 250 253 265 268 266 268 270 270 271 272 266 263
264 262 262 260 258 256 248 240 242 243 239 240 244 243 245 245 244 251 246 245 244 239 244 263 268 272 268 265 267 262 269 264 252 263 267 267 268 268 268 270 270 267 260
263 267 259 257 257 254 251 248 244 243 241 243 244 244 243 241 242 251 248 247 249 253 247 255 267 267 270 267 272 271 272 267 268 265 268 269 268 270 270 270 268 268 262
268 271 267 262 258 254 253 254 251 250 248 249 248 249 248 240 239 245 248 245 250 254 253 255 262 261 264 266 264 261 273 262 267 273 268 268 271 274 274 273 271 270 264
281 280 280 282 275 260 251 249 244 247 249 252 253 252 254 252 251 254 250 242 240 245 248 252 257 263 260 260 258 263 266 271 269 263 262 263 268 263 263 267 268 268 263
303 300 287 280 274 272 277 273 266 250 251 253 258 260 262 259 262 267 267 263 253 245 245 249 255 256 259 260 263 268 269 276 274 254 270 276 264 263 259 250 262 267 270
313 306 292 280 273 273 276 277 277 269 254 254 257 260 265 266 267 259 270 274 269 266 259 253 253 256 258 253 253 258 259 263 269 270 281 277 269 266 267 270 271 269 269
304 299 293 285 280 274 275 277 279 273 261 255 254 252 254 262 264 263 260 262 261 263 263 258 252 257 263 262 250 253 260 268 271 265 258 270 269 267 276 271 271 269 271
306 299 293 286 281 280 275 277 280 268 262 262 259 259 257 256 269 272 262 260 266 270 277 273 269 269 270 272 270 263 257 261 270 268 244 252 266 279 275 268 268 270 270
294 294 292 290 283 279 279 281 281 266 261 262 264 266 268 268 270 273 261 254 260 266 272 278 275 274 272 274 275 260 250 253 266 270 241 241 262 278 280 262 254 263 267